Location: Moscow
(38.8570°N, 84.2291°W)
Time: 05:09:21
(UTC+00:00)

SJ-6F - Pass Details

Date: 15 November 2025
Orbit: 543 x 570 km, 97.9° (Epoch: 08 December)

Event Time Altitude Azimuth Distance (km) Brightness Sun altitude
Rises 23:27:33 0° 165° (SSE) 2,693 7.8 -12.7°
Reaches altitude 10° 23:29:40 10° 165° (SSE) 1,804 6.9 -13.1°
Maximum altitude 23:33:33 85° 78° (ENE) 551 4.2 -13.9°
Drops below altitude 10° 23:37:29 10° 349° (N) 1,817 7.0 -14.6°
Sets 23:39:37 0° 349° (N) 2,715 7.9 -15.0°
